Location: ??????????
(54.8537°N, 38.8755°E)
Time: 23:32:47
(UTC+00:00)

Transit 2A Rocket - Pass Details

Date: 16 September 2024
Orbit: 582 x 908 km, 66.7° (Epoch: 09 October)

Event Time Altitude Azimuth Distance (km) Brightness Sun altitude
Exits shadow 20:32:20 25° 64° (ENE) 1,756 6.9 -32.1°
Drops below altitude 10° 20:34:59 10° 50° (NE) 2,600 8.0 -32.2°
Sets 20:37:37 0° 44° (NE) 3,531 8.8 -32.3°
